EW1631 Weather Reports


time (UTC)temp
F
wind
direction
speed
knots
gust
knots
rain 1hr
in
rain 24hr
in
rain mn
in
humidity
%
barometer
mb
20260903160008 88 144 7.0 10.4 0.00 0.00 0.00 9 1008.2
20260903154602 89 194 5.2 11.3 0.00 0.00 0.00 9 1008.3
20260903153057 88 304 9.6 14.8 0.00 0.00 0.00 10 1008.1
20260903151557 86 292 5.2 11.3 0.00 0.00 0.00 11 1008.3
20260903150055 85 294 2.6 7.8 0.00 0.00 0.00 8 1008.3
20260903144547 86 185 2.6 7.8 0.00 0.00 0.00 11 1008.2
20260903143045 85 294 7.8 12.2 0.00 0.00 0.00 12 1008.0
20260903141541 84 310 8.7 13.0 0.00 0.00 0.00 12 1007.8
20260903140035 83 288 9.6 13.0 0.00 0.00 0.00 12 1007.6
20260903134532 83 292 8.7 13.0 0.00 0.00 0.00 12 1007.5
20260903133029 82 299 6.1 11.3 0.00 0.00 0.00 12 1007.6
20260903131527 83 219 2.6 9.6 0.00 0.00 0.00 12 1007.5
20260903130027 83 254 4.3 12.2 0.00 0.00 0.00 13 1007.4
20260903124526 84 249 4.3 11.3 0.00 0.00 0.00 13 1007.2
20260903123029 84 213 4.3 13.9 0.00 0.00 0.00 12 1007.3
20260903121528 84 229 7.8 16.5 0.00 0.00 0.00 12 1007.4
20260903120029 84 229 8.7 15.6 0.00 0.00 0.00 12 1007.3
20260903114525 83 235 6.1 12.2 0.00 0.00 0.00 11 1007.3
20260903113026 81 243 7.0 12.2 0.00 0.00 0.00 10 1007.2
20260903111539 82 295 7.0 10.4 0.00 0.00 0.00 7 1007.3
20260903110020 83 283 8.7 14.8 0.00 0.00 0.00 6 1007.1
20260903104520 83 281 8.7 15.6 0.00 0.00 0.00 5 1007.3
20260903103020 83 257 7.0 12.2 0.00 0.00 0.00 4 1007.3
20260903101519 83 290 5.2 11.3 0.00 0.00 0.00 4 1007.5
20260903100018 83 267 7.8 12.2 0.00 0.00 0.00 4 1007.4
20260903094517 83 279 7.8 16.5 0.00 0.00 0.00 4 1007.3
20260903093029 84 278 7.8 14.8 0.00 0.00 0.00 4 1007.2
20260903091528 84 286 7.8 15.6 0.00 0.00 0.00 5 1007.3
20260903090012 84 288 7.0 15.6 0.00 0.00 0.00 5 1007.5
20260903084509 83 266 9.6 18.2 0.00 0.00 0.00 7 1007.7
20260903083009 83 288 10.4 15.6 0.00 0.00 0.00 9 1007.8
20260903081505 83 257 11.3 20.9 0.00 0.00 0.00 9 1008.2
20260903080003 83 294 8.7 16.5 0.00 0.00 0.00 10 1008.2
20260903074604 83 298 8.7 15.6 0.00 0.00 0.00 10 1008.1
20260903073103 81 306 5.2 8.7 0.00 0.00 0.00 10 1008.3
20260903071556 82 325 3.5 8.7 0.00 0.00 0.00 12 1008.2
20260903070052 82 309 4.3 8.7 0.00 0.00 0.00 12 1008.1
20260903064550 82 290 4.3 11.3 0.00 0.00 0.00 11 1008.2
20260903063055 83 267 6.1 12.2 0.00 0.00 0.00 14 1008.1
20260903061602 83 302 8.7 13.0 0.00 0.00 0.00 15 1008.0
20260903060050 84 265 7.8 14.8 0.00 0.00 0.00 13 1008.1
20260903054550 86 280 9.6 14.8 0.00 0.00 0.00 10 1008.2
20260903053105 87 300 9.6 19.1 0.00 0.00 0.00 9 1008.3
20260903051549 86 288 8.7 13.9 0.00 0.00 0.00 9 1008.5
20260903050048 85 288 7.0 10.4 0.00 0.00 0.00 11 1008.7
20260903044548 86 296 9.6 14.8 0.00 0.00 0.00 10 1008.6
20260903043049 87 292 8.7 14.8 0.00 0.00 0.00 11 1008.3
20260903041549 86 294 10.4 19.1 0.00 0.00 0.00 14 1008.3
20260903040049 87 293 9.6 13.9 0.00 0.00 0.00 15 1008.0
20260903034548 88 296 11.3 16.5 0.00 0.00 0.00 14 1007.8
20260903033051 87 308 12.2 18.2 0.00 0.00 0.00 16 1007.6
20260903031550 89 296 9.6 17.4 0.00 0.00 0.00 13 1007.3
20260903030107 90 290 9.6 15.6 0.00 0.00 0.00 13 1007.0
20260903024545 91 294 8.7 13.0 0.00 0.00 0.00 12 1007.2
20260903023044 91 297 7.8 13.0 0.00 0.00 0.00 13 1006.8
20260903021543 92 268 8.7 13.9 0.00 0.00 0.00 14 1006.6
20260903020042 93 276 7.0 10.4 0.00 0.00 0.00 13 1006.8
20260903014541 95 261 7.0 13.0 0.00 0.00 0.00 12 1006.5
20260903013045 96 300 7.8 13.9 0.00 0.00 0.00 12 1006.7
20260903011550 97 285 7.8 13.0 0.00 0.00 0.00 10 1006.6
20260903010041 98 269 7.0 14.8 0.00 0.00 0.00 9 1006.7
20260903004539 99 265 7.0 17.4 0.00 0.00 0.00 10 1006.7
20260903003043 99 279 7.0 14.8 0.00 0.00 0.00 10 1006.7
20260903001542 100 267 9.6 14.8 0.00 0.00 0.00 8 1006.8
20260903000041 100 284 10.4 14.8 0.00 0.00 0.00 9 1006.8
20260902234540 101 301 9.6 17.4 0.00 0.00 0.00 10 1006.8
20260902233037 101 258 9.6 17.4 0.00 0.00 0.00 8 1006.9
20260902231546 102 279 11.3 17.4 0.00 0.00 0.00 7 1006.9
20260902230035 102 305 9.6 18.2 0.00 0.00 0.00 6 1007.0
20260902224550 102 297 10.4 19.1 0.00 0.00 0.00 6 1007.0
20260902223048 102 329 11.3 18.2 0.00 0.00 0.00 6 1007.2
20260902221543 102 298 10.4 19.1 0.00 0.00 0.00 6 1007.3
20260902220051 102 305 12.2 20.9 0.00 0.00 0.00 5 1007.3
20260902214532 102 290 9.6 20.0 0.00 0.00 0.00 6 1007.5
20260902213029 102 309 10.4 17.4 0.00 0.00 0.00 6 1007.5
20260902211527 102 280 11.3 16.5 0.00 0.00 0.00 6 1007.7
20260902210025 102 298 10.4 18.2 0.00 0.00 0.00 6 1007.8
20260902204525 103 271 9.6 18.2 0.00 0.00 0.00 6 1008.0
20260902203022 102 307 9.6 18.2 0.00 0.00 0.00 6 1008.3
20260902201538 103 314 7.8 13.0 0.00 0.00 0.00 6 1008.5
20260902200018 102 290 7.8 13.9 0.00 0.00 0.00 6 1008.7
20260902194527 101 300 7.8 13.9 0.00 0.00 0.00 6 1008.9
20260902193034 101 291 7.8 14.8 0.00 0.00 0.00 6 1009.1
20260902191509 100 289 8.7 14.8 0.00 0.00 0.00 6 1009.3
20260902190005 100 335 6.1 14.8 0.00 0.00 0.00 6 1009.4
20260902184502 99 302 7.8 15.6 0.00 0.00 0.00 6 1009.7
20260902183123 98 315 11.3 16.5 0.00 0.00 0.00 6 1010.0
20260902181609 98 303 8.7 13.9 0.00 0.00 0.00 6 1010.2
20260902180052 97 302 7.8 15.6 0.00 0.00 0.00 6 1010.3
20260902174547 97 297 6.1 11.3 0.00 0.00 0.00 7 1010.5
20260902173047 96 284 6.1 12.2 0.00 0.00 0.00 7 1010.4
20260902171552 95 289 7.8 12.2 0.00 0.00 0.00 7 1010.4
20260902170039 94 239 2.6 7.0 0.00 0.00 0.00 10 1010.6
20260902164539 93 175 2.6 7.8 0.00 0.00 0.00 11 1010.6
20260902163036 93 116 2.6 8.7 0.00 0.00 0.00 11 1010.3
20260902161526 92 114 2.6 6.1 0.00 0.00 0.00 11 1010.2